This is the latest recevied weather packets stored in our database for station/object IW0REF-9. If no packets are shown the sender has not sent any weather packets the latest 1 day(s).
| Time | Temp. | Humidity | Pressure | Rain* | Wind** | Luminosity | Snow |
|---|---|---|---|---|---|---|---|
| 1778043207 | 16.67° C | 45% | 997 hPa | - | - | - | - |
| 1778042307 | 16.67° C | 45% | 997.3 hPa | - | - | - | - |
| 1778041407 | 16.11° C | 45% | 997.5 hPa | - | - | - | - |
| 1778040507 | 16.11° C | 45% | 997.6 hPa | - | - | - | - |
| 1778039607 | 16.11° C | 45% | 997.7 hPa | - | - | - | - |
| 1778036906 | 17.22° C | 44% | 997.8 hPa | - | - | - | - |
| 1778036006 | 17.22° C | 43% | 997.6 hPa | - | - | - | - |
| 1778035106 | 18.33° C | 41% | 997.8 hPa | - | - | - | - |
| 1778034206 | 17.22° C | 43% | 997.8 hPa | - | - | - | - |
| 1778033306 | 17.78° C | 41% | 997.6 hPa | - | - | - | - |
| 1778032406 | 17.78° C | 42% | 997.6 hPa | - | - | - | - |
| 1778031506 | 17.22° C | 42% | 997.5 hPa | - | - | - | - |
| 1778030606 | 18.33° C | 39% | 997.5 hPa | - | - | - | - |
| 1778029705 | 17.78° C | 39% | 997.4 hPa | - | - | - | - |
| 1778027905 | 17.78° C | 39% | 997.7 hPa | - | - | - | - |
| 1778027005 | 17.78° C | 39% | 997.7 hPa | - | - | - | - |
| 1778026105 | 17.78° C | 39% | 998 hPa | - | - | - | - |
| 1778022505 | 17.78° C | 39% | 998.3 hPa | - | - | - | - |
| 1778021605 | 17.78° C | 39% | 998.4 hPa | - | - | - | - |
| 1778014404 | 18.33° C | 41% | 999.4 hPa | - | - | - | - |
| 1778013504 | 18.33° C | 41% | 999.3 hPa | - | - | - | - |
| 1778012604 | 18.33° C | 41% | 999.3 hPa | - | - | - | - |
| 1778009000 | 18.89° C | 40% | 999.1 hPa | - | - | - | - |
| 1778008100 | 18.89° C | 41% | 999 hPa | - | - | - | - |
| 1778007200 | 18.89° C | 41% | 998.8 hPa | - | - | - | - |
* Rain since midnight (hover to see other rain measurements)
** Current wind speed in m/s (hover to see current wind gust speed)